Tracking 29892 objects as of 21-Nov-2024
HD Live streaming from Space Station
objects crossing your sky now

STARLINK-2536

Track STARLINK-2536 now!
10-day predictions
STARLINK-2536 is classified as:


NORAD ID: 48310
Int'l Code: 2021-036AL
Perigee: 553.3 km
Apogee: 555.2 km
Inclination: 53.1 °
Period: 95.6 minutes
Semi major axis: 6925 km
RCS: Unknown
Launch date: April 29, 2021
Source: United States (US)
Launch site: AIR FORCE EASTERN TEST RANGE (AFETR)
Your satellite tracking list
Your tracking list is empty




NASA's NSSDC Master Catalog

Two Line Element Set (TLE):
1 48310U 21036AL  24325.31304401  .00013267  00000-0  90731-3 0  9992
2 48310  53.0551  61.1768 0001377  85.0979 275.0167 15.06423802196670
Source of the keplerian elements: AFSPC